Change the Weather History Date:

Monday, March 10, 2014

  Actual Average (KCLT) Record (KCLT)
Temperature  
Mean Temperature 52 °F 50 °F  
Max Temperature 74 °F 61 °F 82 °F (1974)
Min Temperature 29 °F 38 °F 17 °F (1932)
Degree Days  
Heating Degree Days 14 16  
Month to date heating degree days 168  
Since 1 July heating degree days 2867  
Cooling Degree Days 0 0  
Month to date cooling degree days 0  
Year to date cooling degree days 0  
Growing Degree Days 2 (Base 50)    
Moisture  
Dew Point 30 °F    
Average Humidity 50    
Maximum Humidity 94    
Minimum Humidity 18    
Precipitation  
Precipitation 0.00 in 0.13 in 1.35 in (1913)
Month to date precipitation 1.34  
Year to date precipitation 8.07  
Snow  
Snow 0.00 in 0.00 in 1.00 in (1924)
Month to date snowfall 0.3  
Since 1 July snowfall 4.0  
Snow Depth -    
Sea Level Pressure  
Sea Level Pressure 29.93 in    
Wind  
Wind Speed 2 mph (WSW)    
Max Wind Speed 13 mph    
Max Gust Speed 17 mph    
Visibility 10 miles    
Events      
T = Trace of Precipitation, MM = Missing Value Source: NWS Daily Summary

Daily Weather History Graph

Daily Weather History Graph

Search for Another Location

Airport or City:

Trip Planner

Search our weather history database for the weather conditions in past years. The results will help you decide how hot, cold, wet, or windy it might be!

Date:

Astronomy

Mar. 10, 2014 Rise Set
Actual Time 7:42 AM EDT 7:27 PM EDT
Civil Twilight 7:16 AM EDT 7:53 PM EDT
Nautical Twilight 6:47 AM EDT 8:22 PM EDT
Astronomical Twilight 6:17 AM EDT 8:52 PM EDT
Moon 2:18 PM EDT (3/10) 3:44 AM EDT (3/10)
Length of Visible Light 12h 36m
Length of Day
11h 45m
Waxing Gibbous, 70% of the Moon is Illuminated
Mar 10
Waxing Gibbous
Mar 16
Full
Mar 23
Last Quarter
Mar 30
New
Apr 7
First Quarter

Hourly Weather History & Observations

Time (EDT) Temp. Windchill Dew Point Humidity Pressure Visibility Wind Dir Wind Speed Gust Speed Precip Events Conditions
12:15 AM 46.0 °F - 29.1 °F 52% 30.05 in 10.0 mi Calm Calm - N/A   Clear
12:35 AM 47.1 °F - 24.3 °F 41% 30.05 in 10.0 mi Calm Calm - N/A   Clear
12:55 AM 44.4 °F - 27.1 °F 51% 30.05 in 10.0 mi Calm Calm - N/A   Clear
1:15 AM 41.4 °F 39.4 °F 28.2 °F 60% 30.03 in 10.0 mi West 3.5 mph - N/A   Clear
1:35 AM 40.3 °F - 28.9 °F 64% 30.02 in 10.0 mi Calm Calm - N/A   Clear
1:55 AM 39.2 °F 37.0 °F 30.7 °F 72% 30.01 in 10.0 mi West 3.5 mph - N/A   Clear
2:15 AM 38.5 °F - 28.9 °F 69% 30.01 in 10.0 mi Calm Calm - N/A   Clear
2:35 AM 37.8 °F - 30.2 °F 74% 30.01 in 10.0 mi Calm Calm - N/A   Clear
2:55 AM 37.9 °F - 28.9 °F 70% 30.01 in 10.0 mi Calm Calm - N/A   Clear
3:15 AM 36.9 °F - 30.7 °F 79% 30.00 in 10.0 mi Calm Calm - N/A   Clear
3:35 AM 35.4 °F - 30.9 °F 84% 30.00 in 10.0 mi Calm Calm - N/A   Clear
3:55 AM 35.4 °F - 30.4 °F 82% 29.99 in 10.0 mi Calm Calm - N/A   Clear
4:15 AM 34.7 °F - 30.7 °F 85% 29.99 in 10.0 mi Calm Calm - N/A   Clear
4:35 AM 33.3 °F - 29.8 °F 87% 29.98 in 10.0 mi Calm Calm - N/A   Clear
4:55 AM 32.2 °F - 28.2 °F 85% 29.98 in 10.0 mi Calm Calm - N/A   Clear
5:15 AM 33.1 °F - 28.9 °F 85% 29.98 in 10.0 mi Calm Calm - N/A   Clear
5:35 AM 32.5 °F - 29.3 °F 88% 29.98 in 10.0 mi Calm Calm - N/A   Clear
5:55 AM 32.0 °F - 29.5 °F 90% 29.98 in 10.0 mi Calm Calm - N/A   Clear
6:15 AM 31.3 °F - 28.2 °F 88% 29.97 in 10.0 mi Calm Calm - N/A   Clear
6:35 AM 31.3 °F 27.9 °F 27.9 °F 87% 29.97 in 10.0 mi WSW 3.5 mph - N/A   Clear
6:55 AM 30.4 °F - 28.9 °F 94% 29.97 in 10.0 mi Calm Calm - N/A   Clear
7:15 AM 30.7 °F - 28.4 °F 91% 29.97 in 10.0 mi Calm Calm - N/A   Clear
7:35 AM 30.4 °F - 26.4 °F 85% 29.97 in 10.0 mi Calm Calm - N/A   Clear
7:55 AM 29.3 °F - 27.3 °F 92% 29.98 in 10.0 mi Calm Calm - N/A   Clear
8:15 AM 30.9 °F - 27.5 °F 87% 29.98 in 10.0 mi Calm Calm - N/A   Clear
8:35 AM 31.8 °F - 28.4 °F 87% 29.98 in 10.0 mi Calm Calm - N/A   Clear
8:55 AM 36.0 °F - 31.6 °F 84% 29.98 in 10.0 mi Calm Calm - N/A   Clear
9:15 AM 39.9 °F - 31.8 °F 73% 29.99 in 10.0 mi Calm Calm - N/A   Clear
9:35 AM 47.1 °F - 36.3 °F 66% 29.99 in 10.0 mi West 5.8 mph - N/A   Clear
9:55 AM 53.1 °F - 25.5 °F 34% 29.99 in 10.0 mi WNW 4.6 mph - N/A   Clear
10:15 AM 55.9 °F - 26.1 °F 32% 30.00 in 10.0 mi WNW 4.6 mph - N/A   Clear
10:35 AM 58.3 °F - 27.9 °F 31% 30.00 in 10.0 mi West 9.2 mph - N/A   Clear
10:55 AM 59.5 °F - 29.1 °F 32% 30.00 in 10.0 mi West 9.2 mph - N/A   Clear
11:15 AM 60.8 °F - 23.7 °F 24% 29.98 in 10.0 mi SW 6.9 mph - N/A   Clear
11:35 AM 61.5 °F - 22.8 °F 23% 29.98 in 10.0 mi SW 6.9 mph - N/A   Clear
11:55 AM 62.6 °F - 21.4 °F 21% 29.97 in 10.0 mi West 5.8 mph - N/A   Clear
12:16 PM 64.0 °F - 22.3 °F 20% 29.97 in 10.0 mi WSW 6.9 mph - N/A   Clear
12:35 PM 64.0 °F - 20.7 °F 19% 29.96 in 10.0 mi SSW 4.6 mph - N/A   Clear
12:55 PM 65.7 °F - 23.0 °F 20% 29.95 in 10.0 mi WSW 5.8 mph - N/A   Clear
1:15 PM 66.2 °F - 22.8 °F 19% 29.95 in 10.0 mi WSW 9.2 mph - N/A   Clear
1:35 PM 66.4 °F - 22.5 °F 19% 29.94 in 10.0 mi NNW 4.6 mph - N/A   Clear
1:55 PM 66.7 °F - 22.8 °F 19% 29.93 in 10.0 mi West 3.5 mph - N/A   Clear
2:15 PM 67.5 °F - 22.3 °F 18% 29.92 in 10.0 mi West 3.5 mph - N/A   Clear
2:35 PM 68.7 °F - 23.5 °F 18% 29.90 in 10.0 mi West 8.1 mph - N/A   Clear
2:55 PM 69.3 °F - 23.5 °F 18% 29.89 in 10.0 mi West 4.6 mph - N/A   Clear
3:15 PM 69.6 °F - 23.7 °F 18% 29.88 in 10.0 mi SW 9.2 mph - N/A   Clear
3:35 PM 70.7 °F - 26.6 °F 19% 29.87 in 10.0 mi West 5.8 mph - N/A   Clear
3:55 PM 71.1 °F - 27.3 °F 20% 29.86 in 10.0 mi West 8.1 mph - N/A   Clear
4:15 PM 72.3 °F - 32.0 °F 23% 29.85 in 10.0 mi WNW 4.6 mph 9.2 mph N/A   Clear
4:35 PM 72.7 °F - 33.4 °F 24% 29.85 in 10.0 mi WSW 9.2 mph - N/A   Clear
4:56 PM 72.9 °F - 34.2 °F 24% 29.84 in 10.0 mi West 9.2 mph - N/A   Clear
5:15 PM 73.4 °F - 34.3 °F 24% 29.83 in 10.0 mi WSW 10.4 mph 16.1 mph N/A   Clear
5:35 PM 74.1 °F - 34.2 °F 23% 29.83 in 10.0 mi WSW 11.5 mph - N/A   Clear
5:55 PM 74.1 °F - 33.6 °F 23% 29.82 in 10.0 mi WSW 8.1 mph - N/A   Clear
6:15 PM 73.4 °F - 33.4 °F 23% 29.82 in 10.0 mi West 12.7 mph - N/A   Clear
6:35 PM 72.1 °F - 32.0 °F 23% 29.82 in 10.0 mi WSW 9.2 mph 17.3 mph N/A   Clear
6:55 PM 71.6 °F - 31.8 °F 23% 29.83 in 10.0 mi WSW 5.8 mph - N/A   Clear
7:15 PM 70.0 °F - 30.2 °F 23% 29.83 in 10.0 mi WSW 8.1 mph - N/A   Clear
7:35 PM 67.6 °F - 30.9 °F 25% 29.83 in 10.0 mi SW 6.9 mph - N/A   Clear
7:55 PM 67.5 °F - 30.7 °F 25% 29.83 in 10.0 mi WSW 3.5 mph - N/A   Clear
8:15 PM 63.5 °F - 32.0 °F 31% 29.83 in 10.0 mi WSW 3.5 mph - N/A   Clear
8:35 PM 59.5 °F - 33.6 °F 38% 29.84 in 10.0 mi West 3.5 mph - N/A   Clear
8:55 PM 57.0 °F - 35.1 °F 44% 29.84 in 10.0 mi West 3.5 mph - N/A   Clear
9:15 PM 57.6 °F - 35.1 °F 43% 29.85 in 10.0 mi Calm Calm - N/A   Clear
9:35 PM 52.5 °F - 36.5 °F 54% 29.85 in 10.0 mi Calm Calm - N/A   Clear
9:55 PM 52.0 °F - 35.8 °F 54% 29.85 in 10.0 mi Calm Calm - N/A   Clear
10:15 PM 53.4 °F - 36.5 °F 53% 29.85 in 10.0 mi Calm Calm - N/A   Clear
10:35 PM 49.6 °F - 37.2 °F 62% 29.85 in 10.0 mi West 5.8 mph - N/A   Clear
10:55 PM 51.4 °F - 38.1 °F 60% 29.85 in 10.0 mi Calm Calm - N/A   Clear
11:15 PM 53.2 °F - 37.4 °F 55% 29.85 in 10.0 mi West 3.5 mph - N/A   Clear
11:35 PM 50.4 °F - 37.4 °F 61% 29.85 in 10.0 mi WSW 3.5 mph - N/A   Clear
11:55 PM 46.0 °F 44.8 °F 37.8 °F 73% 29.84 in 10.0 mi WSW 3.5 mph - N/A   Clear